This demonstration page uses our WeatherBlox Daily Observations layout. Learn more.

Left ArrowRight Arrow

Hourly Observations for November 29, 2020

Temp ( °F °C ) Dew Point ( °F °C ) Humidity (%) Winds ( mph kmh ) Pressure ( in mb ) Visibility ( mi km ) Precip ( " mm )
12:15 am 00:15 Clear 34 1 30 -1 87 87 N 5 7 30.2 1023 10 16.0934 0 0
12:35 am 00:35 Clear 36 2 30 -1 81 81 Calm 30.2 1023 10 16.0934 0 0
12:55 am 00:55 Clear 34 1 30 -1 87 87 NNW 3 6 30.2 1023 10 16.0934 0 0
1:15 am 01:15 Clear 34 1 32 0 93 93 Calm 30.2 1023 10 16.0934 0 0
1:35 am 01:35 Clear 32 0 32 0 100 100 Calm 30.2 1023 10 16.0934 0 0
1:55 am 01:55 Clear 32 0 30 -1 93 93 SW 5 7 30.2 1023 10 16.0934 0 0
2:15 am 02:15 Clear 32 0 30 -1 93 93 Calm 30.2 1023 10 16.0934 0 0
2:35 am 02:35 Clear 32 0 30 -1 93 93 Calm 30.21 1023 10 16.0934 0 0
2:55 am 02:55 Clear 32 0 30 -1 93 93 Calm 30.2 1023 10 16.0934 0 0
3:15 am 03:15 Clear 32 0 30 -1 93 93 Calm 30.2 1023 10 16.0934 0 0
3:35 am 03:35 Clear 32 0 30 -1 93 93 Calm 30.2 1023 10 16.0934 0 0
3:55 am 03:55 Clear 32 0 28 -2 87 87 NNW 3 6 30.2 1023 10 16.0934 0 0
4:15 am 04:15 Clear 30 -1 28 -2 93 93 Calm 30.2 1023 10 16.0934 0 0
4:35 am 04:35 Clear 32 0 30 -1 93 93 Calm 30.2 1023 10 16.0934 0 0
4:55 am 04:55 Clear 32 0 28 -2 87 87 Calm 30.2 1023 10 16.0934 0 0
5:15 am 05:15 Clear 30 -1 28 -2 93 93 WSW 3 6 30.21 1023 10 16.0934 0 0
5:35 am 05:35 Clear 30 -1 28 -2 93 93 WSW 3 6 30.21 1023 10 16.0934 0 0
5:55 am 05:55 Clear 30 -1 28 -2 93 93 W 5 7 30.21 1023 10 16.0934 0 0
6:15 am 06:15 Clear 30 -1 28 -2 93 93 W 3 6 30.21 1023 10 16.0934 0 0
6:35 am 06:35 Clear 32 0 28 -2 87 87 Calm 30.22 1023 10 16.0934 0 0
6:55 am 06:55 Clear 30 -1 28 -2 93 93 W 6 9 30.23 1024 10 16.0934 0 0
7:15 am 07:15 Sunny 30 -1 28 -2 93 93 Calm 30.23 1024 10 16.0934 0 0
7:35 am 07:35 Sunny 32 0 28 -2 87 87 Calm 30.24 1024 10 16.0934 0 0
7:55 am 07:55 Sunny 32 0 30 -1 93 93 Calm 30.24 1024 10 16.0934 0 0
8:15 am 08:15 Sunny 36 2 30 -1 81 81 Calm 30.24 1024 10 16.0934 0 0
8:35 am 08:35 Sunny 36 2 32 0 87 87 Calm 30.25 1024 10 16.0934 0 0
8:55 am 08:55 Sunny 37 3 32 0 81 81 Calm 30.24 1024 10 16.0934 0 0
9:15 am 09:15 Sunny 41 5 32 0 70 70 Calm 30.23 1024 10 16.0934 0 0
9:35 am 09:35 Sunny 45 7 32 0 61 61 WSW 3 6 30.24 1024 10 16.0934 0 0
9:55 am 09:55 Sunny 46 8 32 0 57 57 S 5 7 30.24 1024 10 16.0934 0 0
10:15 am 10:15 Sunny 46 8 32 0 57 57 SSW 7 11 30.24 1024 10 16.0934 0 0
10:35 am 10:35 Sunny 50 10 32 0 50 50 S 9 15 30.23 1024 10 16.0934 0 0
10:55 am 10:55 Sunny 50 10 32 0 50 50 S 9 15 30.22 1023 10 16.0934 0 0
11:15 am 11:15 Sunny 52 11 32 0 47 47 SSW 7 11 30.2 1023 10 16.0934 0 0
11:35 am 11:35 Sunny 52 11 32 0 47 47 S 7 11 30.18 1022 10 16.0934 0 0
11:55 am 11:55 Sunny 54 12 32 0 44 44 S 7 11 30.18 1022 10 16.0934 0 0
12:15 pm 12:15 Sunny 54 12 32 0 44 44 S 5 7 30.17 1022 10 16.0934 0 0
12:35 pm 12:35 Sunny 54 12 32 0 44 44 S 6 9 30.15 1021 10 16.0934 0 0
12:55 pm 12:55 Sunny 55 13 32 0 41 41 S 7 11 30.14 1021 10 16.0934 0 0
1:15 pm 13:15 Sunny 55 13 32 0 41 41 SW 8 13 30.14 1021 10 16.0934 0 0
1:35 pm 13:35 Sunny 55 13 32 0 41 41 S 13 20 30.12 1020 10 16.0934 0 0
1:55 pm 13:55 Sunny 55 13 32 0 41 41 S 13 20 30.12 1020 10 16.0934 0 0
2:15 pm 14:15 Sunny 55 13 32 0 41 41 S 8 13 30.11 1020 10 16.0934 0 0
2:35 pm 14:35 Sunny 55 13 32 0 41 41 S 7 11 30.11 1020 10 16.0934 0 0
2:55 pm 14:55 Sunny 55 13 34 1 44 44 SSW 10 17 30.11 1020 10 16.0934 0 0
3:15 pm 15:15 Sunny 55 13 34 1 44 44 S 9 15 30.1 1019 10 16.0934 0 0
3:35 pm 15:35 Sunny 55 13 34 1 44 44 S 8 13 30.1 1019 10 16.0934 0 0
3:55 pm 15:55 Sunny 54 12 36 2 51 51 S 6 9 30.1 1019 10 16.0934 0 0
4:15 pm 16:15 Sunny 54 12 36 2 51 51 S 8 13 30.1 1019 10 16.0934 0 0
4:35 pm 16:35 Sunny 54 12 36 2 51 51 S 6 9 30.1 1019 10 16.0934 0 0
4:55 pm 16:55 Clear 54 12 36 2 51 51 SSE 8 13 30.1 1019 10 16.0934 0 0
5:15 pm 17:15 Clear 54 12 36 2 51 51 SSE 7 11 30.1 1019 10 16.0934 0 0
5:35 pm 17:35 Clear 54 12 36 2 51 51 SSE 7 11 30.09 1019 10 16.0934 0 0
5:55 pm 17:55 Clear 52 11 36 2 54 54 SSE 8 13 30.1 1019 10 16.0934 0 0
6:15 pm 18:15 Clear 52 11 36 2 54 54 SSE 8 13 30.08 1019 10 16.0934 0 0
6:35 pm 18:35 Clear 52 11 36 2 54 54 SE 7 11 30.08 1019 10 16.0934 0 0
6:55 pm 18:55 Clear 50 10 36 2 58 58 SSE 5 7 30.09 1019 10 16.0934 0 0
7:15 pm 19:15 Clear 46 8 37 3 71 71 SSE 7 11 30.09 1019 10 16.0934 0 0
7:35 pm 19:35 Clear 50 10 37 3 62 62 SSE 6 9 30.09 1019 10 16.0934 0 0
7:55 pm 19:55 Clear 46 8 37 3 71 71 S 6 9 30.09 1019 10 16.0934 0 0
8:15 pm 20:15 Clear 46 8 37 3 71 71 SSW 3 6 30.09 1019 10 16.0934 0 0
8:35 pm 20:35 Clear 46 8 37 3 71 71 Calm 30.08 1019 10 16.0934 0 0
8:55 pm 20:55 Clear 46 8 37 3 71 71 S 6 9 30.07 1018 10 16.0934 0 0
9:15 pm 21:15 Clear 50 10 39 4 67 67 SSE 6 9 30.06 1018 10 16.0934 0 0
9:35 pm 21:35 Clear 50 10 41 5 71 71 SE 6 9 30.06 1018 10 16.0934 0 0
9:55 pm 21:55 Clear 48 9 41 5 76 76 SE 5 7 30.05 1018 10 16.0934 0 0
10:15 pm 22:15 Clear 48 9 41 5 76 76 SE 3 6 30.04 1017 10 16.0934 0 0
10:35 pm 22:35 Clear 48 9 41 5 76 76 SSE 3 6 30.03 1017 10 16.0934 0 0
10:55 pm 22:55 Clear 46 8 41 5 82 82 S 7 11 30.03 1017 10 16.0934 0 0
11:15 pm 23:15 Mostly Cloudy 46 8 41 5 82 82 Calm 30.03 1017 10 16.0934 0 0
11:35 pm 23:35 Cloudy 46 8 43 6 87 87 SSE 5 7 30.02 1017 10 16.0934 0 0
11:55 pm 23:55 Cloudy 46 8 43 6 87 87 SSE 3 6 30.01 1016 10 16.0934 0 0

Powered by AerisWeather